{"data":{"norad_id":48068,"intl_designator":"2021-025AC","name":"ONEWEB-0168","alt_names":[],"object_type":"PAYLOAD","status":"ACTIVE","operator":null,"country":"UK","launch_date":"2021-03-25","launch_site_code":"VOSTO","launch_vehicle":null,"mission":null,"orbit_class":"UNKNOWN","rcs_meters":null,"size_class":null,"mass_kg":null,"dimensions":null,"purposes":["comms"],"wikipedia_slug":null,"has_3d_model":false,"image_url":null,"decayed_at":null,"tle_current":{"epoch":"2026-09-20T01:25:09.765120Z","epoch_age_seconds":60097,"freshness":"FRESH","line1":"1 48068U 21025AC  26263.05914080 -.00000259  00000+0 -74445-3 0  9996","line2":"2 48068  87.8918 301.3487 0001832  93.3836 266.7502 13.13469438266016","mean_motion":13.13469438,"eccentricity":0.0001832,"inclination_deg":87.8918,"raan_deg":301.3487,"arg_perigee_deg":93.3836,"mean_anomaly_deg":266.7502,"bstar":-0.00074445,"rev_number":26601,"period_min":109.63330842267,"perigee_km":1208.3774602302,"apogee_km":1211.1576684626,"semimajor_km":7587.9045643464,"source":"CELESTRAK","updated_at":"2026-09-20T09:00:44.589540Z"}}}